Regional Weather Roundup
Issued by NWS Wakefield, VA

Home | Current Version | Previous Version | Text Only | Print | Product List | Glossary Off
Versions: 1 2 3 4 5 6 7 8 9 10 11 12 13 14 15 16 17 18 19 20 21 22 23 24 25 26 27 28 29 30 31 32 33 34 35 36 37 38 39 40 41 42 43 44 45 46 47 48 49 50

539
ASUS41 KAKQ 262015
RWRAKQ

REGIONAL WEATHER ROUNDUP
NATIONAL WEATHER SERVICE WAKEFIELD VA
400 PM EDT SUN MAR 26 2017

Note: "fair" indicates few or no clouds below 12,000 feet with no
significant weather and/or obstructions to visibility. * = Denotes
station may not report precipitation (e.g., rain,snow,etc.),
thunder or fog.

VAZ042-051-052>054-056-262100-
NORTHERN VIRGINIA

CITY           SKY/WX    TMP DP  RH WIND       PRES   REMARKS
WASH NATIONAL  CLOUDY    50  46  86 E13       30.26F
DULLES         CLOUDY    49  43  80 SE6       30.26S
FORT BELVOIR   CLOUDY    49  44  82 E7        30.26F
QUANTICO       CLOUDY    51  47  86 SE8       30.26F
FREDERICKSBRG* CLOUDY    53  48  84 NE8       30.24S
STAFFORD*      CLOUDY    50  48  92 E8        30.28F
WARRENTON      CLOUDY    52  44  75 E7        30.24F
CULPEPER*      CLOUDY    52  47  84 NE3       30.24F
MANASSAS*      CLOUDY    50  45  83 E7        30.26F
LEESBURG*      CLOUDY    50  46  87 E7        30.26F
WINCHESTER     CLOUDY    46  43  87 E6        30.22F
FRONT ROYAL*   CLOUDY    50  46  87 E10G16    30.18F
LURAY*         CLOUDY    59  50  72 N7        30.15F
$$

VAZ048-049-060>072-079>083-262100-
CENTRAL AND SOUTH CENTRAL VIRGINIA

CITY           SKY/WX    TMP DP  RH WIND       PRES   REMARKS
RICHMOND       CLOUDY    69  55  60 E13       30.18F
CHESTERFIELD*  MOCLDY   N/A N/A N/A S12       30.18F
PETERSBURG*    CLOUDY    73  49  41 S7        30.18S
HANOVER        CLOUDY    64  50  60 NE8G17    30.20F
TAPPAHANNOCK*  CLOUDY    56  44  64 NE10      30.24F
QUINTON*       MOCLDY    67  56  65 NE10G20   30.19F
CHARLOTTSVILLE CLOUDY    57  48  72 NE10      30.20F
GORDONSVILLE*  CLOUDY    55  49  79 NE12      30.20F
ORANGE*        CLOUDY    52  46  82 N7        30.23F
LOUISA*        CLOUDY    64  54  68 NE9       30.19F
BUMPASS*       FAIR      59  50  72 E7        30.20F
FARMVILLE*     PTSUNNY   74  50  42 S10       30.13F
CREWE*         FAIR      73  52  47 S8G18     30.15F
FORT PICKETT*  FAIR     N/A N/A N/A S10G20    30.16F
CHASE CITY*    MOCLDY    73  48  41 S6        30.15F
CLARKSVILLE*   MOCLDY    72  50  46 S12G17    30.15F
SOUTH HILL*    CLOUDY    74  54  50 SE7G16    30.22F
LAWRENCEVILLE* MOCLDY    73  52  48 S8        30.17F
EMPORIA*       CLOUDY    73  50  43 SE8       30.19F
$$

VAZ088>098-262100-
SOUTHEAST VIRGINIA

CITY           SKY/WX    TMP DP  RH WIND       PRES   REMARKS
NORFOLK        MOSUNNY   57  49  74 NE9       30.21F
VIRGINIA BEACH CLOUDY    59  50  72 E9        30.22F
NORFOLK NAVAL  PTSUNNY   59  49  69 E14       30.23F
WEST POINT*    MOSUNNY   64  51  63 NE14      30.23F
SALUDA*        CLOUDY    58  53  83 E9        30.24S
NEWPORT NEWS   MOSUNNY   61  52  72 E15       30.22F
LANGLEY AFB    PTSUNNY   60  53  77 NE13      30.22F
FORT EUSTIS    PTSUNNY   68  54  59 E10       30.18F
WILLIAMSBURG*  CLOUDY    70  55  60 E6G16     30.21F
HR EXEC AP*    MOCLDY    70  52  52 NE6       30.16F
FRANKLIN*      CLOUDY    73  51  44 SE9       30.19F
US460-WAKEFLD  MOSUNNY   74  52  46 VRB5      30.18F
$$

VAZ020-022-025-037-045-262100-
WEST CENTRAL AND SOUTHWEST VIRGINIA

CITY           SKY/WX    TMP DP  RH WIND       PRES   REMARKS
STAUNTON*      CLOUDY    62  49  62 S10G18    30.15F
WAYNESBORO*    CLOUDY    58  48  71 SE9G22    30.15F
HOT SPRINGS VA LGT RAIN  52  50  93 S12G20    30.16F VSB<1/4
LYNCHBURG      CLOUDY    70  48  45 S13G23    30.14F
DANVILLE       PTSUNNY   72  50  45 SW10G21   30.12F
SOUTH BOSTON*  CLOUDY    76  47  36 S6G18     30.13F
MARTINSVILLE   LGT RAIN  59  57  94 W3        30.18S
ROANOKE        LGT RAIN  62  56  80 S5        30.16F
BLACKSBURG     CLOUDY    60  55  85 SE12      30.17F
DUBLIN*        CLOUDY    61  56  82 S9        30.15S
MARION*        MOSUNNY   67  52  58 S8G17     30.11F
HILLSVILLE*    CLOUDY    56  56  99 CALM      30.14F
RICHLANDS*     RAIN      62  54  75 SE7       30.06S
WISE*          RAIN      63  50  63 SW14G21   30.06R
ABINGDON*      PTSUNNY   73  49  43 W12G17    30.03F
$$

MDZ021>025-VAZ099-100-262100-
SOUTHERN MARYLAND AND THE DELMARVA PENINSULA

CITY           SKY/WX    TMP DP  RH WIND       PRES   REMARKS
PATUXENT RIVER CLOUDY    53  50  89 NE9       30.26F
BAY BRIDGE APT CLOUDY    48  45  87 E9        30.29F FOG
LEONARDTOWN    CLOUDY    52  46  82 E5        30.27F
DOVER          CLOUDY    47  47 100 E12       30.31F
GEORGETOWN     CLOUDY    46  44  93 E15       30.31F FOG
EASTON         CLOUDY    48  45  87 E10G17    30.33F
CAMBRIDGE      CLOUDY    50  45  81 E8        30.29S
SALISBURY      CLOUDY    49  47  93 E10       30.29F
OCEAN CITY     FOG       46  44  93 NE10      30.30F VSB 1
WALLOPS ISLAND CLOUDY    50  50 100 NE20      30.27F FOG
ACCOMACK*      PTSUNNY   56  51  83 E10G18    30.25F
$$

NCZ012>017-030>032-262100-
NORTH CENTRAL AND EASTERN NORTH CAROLINA

CITY           SKY/WX    TMP DP  RH WIND       PRES   REMARKS
ROANOKE RAPIDS MOCLDY    73  50  43 S8        30.17F
RALEIGH        PTSUNNY   76  49  38 S14G21    30.15F
ELIZABETH CITY CLOUDY    70  53  54 SE12      30.21F
AHOSKIE*         N/A     73  50  44 S7        30.19F
EDENTON*       PTSUNNY   74  54  49 SE9       30.21F
CURRITUCK*     PTSUNNY   70  54  56 E7        30.22S
KILL DEVIL HLS NOT AVBL
MANTEO         MOSUNNY   72  53  51 S13       30.22F
CAPE HATTERAS  SUNNY     76  53  44 SE6       30.22F
TARBORO*       NOT AVBL
GOLDSBORO      PTSUNNY   74  51  43 S10       30.16F
WASHINGTON     MOSUNNY   72  55  54 E8        30.19F
GREENVILLE     CLOUDY    77  50  38 SW7       30.19F
NEW BERN       PTSUNNY   76  53  44 S9        30.20F
WILMINGTON     MOSUNNY   75  55  49 S9G20     30.19F
$$

VAZ048-262100-
ELSEWHERE

CITY           SKY/WX    TMP DP  RH WIND       PRES   REMARKS
HARRISBURG PA  CLOUDY    45  40  82 E14       30.29F
BALTIMORE      CLOUDY    47  45  93 E14       30.28F
ANNAPOLIS      CLOUDY    48  45  89 E10       30.28F
ANDREWS AFB    CLOUDY    47  44  88 E15       30.25F
PHILADELPHIA   CLOUDY    45  39  79 E14       30.36F
HENDERSON NC   MOSUNNY   71  48  44 S10       30.15F
GREENSBORO     CLOUDY    70  52  52 S14       30.12F
ROCKY MOUNT    CLOUDY    73  51  46 VRB6      30.17F
$$

VAZ100-262100-
MARINE

STATION/POSITION TIME  TEMP    WIND        PRES    WAVE   SWELL
                       AIR SEA DIR/SP/G            HT/PER HT/PER
                 (UTC) (F)     (DEG/KT/KT) (MB)    (FT/S) (FT/S)
CAPE MAY NJ      1948   44 44   60/  9/ 14 1026.5F
LEWES DE         1948   43 45   80/ 21/ 24 1026.4F
OCEAN-CITY-INLET 1948   45 45   30/  7/ 12 1026.4F
WACHAPREAGUE VA  1942   50 57   60/ 12/ 16 1024.5F
THOMAS POINT MD  2000   46 45   90/ 15/ 16   N/A
GOOSES REEF MD   2000   47 46  100/ 10/ 12 1025.9    1/ 2
COVE POINT MD    1942   48      40/  5/  7 1025.7F
SOLOMONS ISLAND  1942   51 47   60/ 10/ 12   N/A
BISHOPS HEAD MD  1948   53 51   50/ 11/ 12 1025.1F
PINEY POINT MD   1948           70/  7/  8   N/A
POTOMAC MD       2000   50 47   40/ 12/ 14 1023.7    0
CAMBRIDGE MD     1948   47 47   50/ 11/ 14 1025.0F
LEWISETTA VA     1942   51 50   60/  6/  9 1024.2F
RAPPAHANNOCK LGT 1948          110/ 12/ 13 1024.4F
STINGRAY PT      1950   50      30/  8/ 10 1024.7F
YORK RVR RNG VA  1942   52      60/ 13/ 14 1022.9F
YORKTOWN VA      1942   53 49   80/ 11/ 12 1023.3F
JAMESTOWN VA     2000   63 55  100/ 12/ 16   N/A     0
DOMINION TERM VA 1942   53      80/ 14/ 19 1023.3F
KIPTOPEKE VA     1948      50   70/ 12/ 15   N/A
CHES BAY BRIDGE  1942   48 50   80/ 14/ 16 1023.5F
CAPE HENRY VA    1942   49      50/ 12/ 14   N/A
WILLOUBY STN VA  1942   51      80/ 14/ 16 1024.2F
S CRANEY ISL VA  1942   58      50/ 11/ 11 1022.8F
CAPE HENRY BUOY  1942      51                N/A     2/ 5
CAPE CHARLES BUO 1951      48                N/A     2/ 6
OFFSHORE WE BUOY 1951      51                N/A     3/ 6
64NM E OF VA BCH 1950   57 53   60/  6/  6 1023.9F   2/ 5   2/ 5
DUCK PIER NC     1942   58 47  140/  7/ 10 1022.9F
44100 DUCK FRF   1935      52                N/A     2/ 9
44056 DUCK FRF   1930      52                N/A     2/18
OREGON INLET NC  1942   70 56  110/  6/  7 1023.5F
HATTERAS NC      1942   72 59  140/  4/  6 1023.3F
DIAMOND SHLS NC  1950   70 75  140/  6/  8 1023.5F   3/ 8   3/ 8
CAPE LOOKOUT NC  2000   67     130/ 10/ 10 1022.8F
$$




USA.gov is the U.S. government's official web portal to all federal, state and local government web resources and services.